Location: Gro� Glienicke
(52.4675°N, 13.1079°E)
Time: 19:19:19
(UTC+00:00)

Cosmos 2112 Rocket - Pass Details

Date: 06 July 2020
Orbit: 756 x 787 km, 74.1° (Epoch: 12 August)

Event Time Altitude Azimuth Distance (km) Brightness Sun altitude
Exits shadow 22:12:31 12° 205° (SSW) 2,183 5.9 -13.8°
Maximum altitude 22:17:27 87° 294° (WNW) 796 4.1 -14.0°
Drops below altitude 10° 22:22:51 10° 25° (NNE) 2,360 7.3 -14.2°
Sets 22:25:15 0° 26° (NNE) 3,291 8.2 -14.3°
